This demonstration page uses our WeatherBlox Daily Observations layout. Learn more.

Left ArrowRight Arrow

Hourly Observations for August 18, 2020

Temp ( °F °C ) Dew Point ( °F °C ) Humidity (%) Winds ( mph kmh ) Pressure ( in mb ) Visibility ( mi km ) Precip ( " mm )
12:15 am 00:15 Cloudy with Rain 67 19.3 66 18.8 97 97 NNE 5 7 29.97 1015 7 11 0.01 0.25
12:35 am 00:35 Cloudy 67 19.3 65 18.5 95 95 Calm 29.97 1015 10 16 0.03 0.76
12:55 am 00:55 Cloudy 66 19.1 65 18.5 96 96 Calm 29.97 1015 10 16 0.03 0.76
1:15 am 01:15 Cloudy 67 19.2 65 18.2 94 94 NE 6 9 29.97 1015 10 16 0.00 0.00
1:35 am 01:35 Cloudy 66 19 65 18.2 95 95 SW 6 9 29.97 1015 10 16 0.00 0.00
1:55 am 01:55 Cloudy 66 19 65 18.1 95 95 E 3 6 29.97 1015 10 16 0.00 0.00
2:15 am 02:15 Cloudy 66 18.8 65 18.1 96 96 E 6 9 29.96 1015 10 16 0.00 0.00
2:35 am 02:35 Cloudy 66 18.9 64 17.8 93 93 E 5 7 29.95 1014 10 16 0.00 0.00
2:55 am 02:55 Cloudy 66 18.8 64 17.7 93 93 Calm 29.94 1014 10 16 0.00 0.00
3:15 am 03:15 Cloudy with Rain 66 18.8 65 18.1 96 96 NNW 6 9 29.95 1014 10 16 0.00 0.00
3:35 am 03:35 Cloudy with Light Rain 65 18.3 64 17.5 95 95 NNE 9 15 29.94 1014 10 16 0.01 0.25
3:55 am 03:55 Cloudy 65 18.2 63 17.1 93 93 NNE 10 17 29.95 1014 10 16 0.01 0.25
4:15 am 04:15 Cloudy with Light Rain 64 17.7 62 16.9 95 95 N 10 17 29.96 1015 10 16 0.01 0.25
4:35 am 04:35 Cloudy with Light Rain 63 17.1 61 16.3 95 95 NNE 8 13 29.97 1015 10 16 0.01 0.25
4:55 am 04:55 Cloudy 63 17 61 16.3 96 96 NE 9 15 29.97 1015 10 16 0.01 0.25
5:15 am 05:15 Cloudy with Rain 62 16.6 61 16 96 96 NE 7 11 29.97 1015 10 16 0.00 0.00
5:35 am 05:35 Cloudy with Heavy Rain 61 16.3 61 16 98 98 NNE 8 13 29.98 1015 3 4 0.20 5.08
5:55 am 05:55 Cloudy with Rain 61 16.2 60 15.7 97 97 ENE 6 9 29.98 1015 4 6 0.31 7.87
6:15 am 06:15 Cloudy with Rain 61 16.1 60 15.7 97 97 ENE 8 13 29.98 1015 5 8 0.05 1.27
6:35 am 06:35 Cloudy with Rain 61 16 60 15.6 97 97 E 5 7 29.99 1016 5 8 0.13 3.30
6:55 am 06:55 Cloudy with Heavy Rain 60 15.8 60 15.5 98 98 E 9 15 29.98 1015 3 5 0.28 7.11
7:15 am 07:15 Cloudy with Light Rain 61 16 60 15.5 97 97 E 9 15 29.99 1016 10 16 0.00 0.00
7:35 am 07:35 Cloudy with Light Rain 61 15.9 60 15.3 96 96 ENE 5 7 29.99 1016 10 16 0.01 0.25
7:55 am 07:55 Cloudy with Drizzle 61 16 60 15.5 97 97 E 9 15 30.00 1016 10 16 0.01 0.25
8:15 am 08:15 Cloudy with Drizzle 61 16 60 15.4 96 96 ENE 7 11 30.00 1016 10 16 0.00 0.00
8:35 am 08:35 Cloudy 60 15.8 59 15 95 95 ENE 5 7 30.00 1016 10 16 0.00 0.00
8:55 am 08:55 Cloudy with Nearby Thunderstorms 61 16 59 15.1 94 94 ESE 8 13 30.01 1016 10 16 0.00 0.00
9:15 am 09:15 Cloudy 61 16.2 59 15 93 93 E 7 11 30.01 1016 10 16 0.00 0.00
9:35 am 09:35 Cloudy 62 16.5 59 15.1 92 92 ESE 6 9 30.01 1016 10 16 0.00 0.00
9:55 am 09:55 Cloudy 63 17 59 15.1 89 89 E 5 7 30.01 1016 10 16 0.00 0.00
10:15 am 10:15 Cloudy with Nearby Thunderstorms 64 18 60 15.5 85 85 E 8 13 30.01 1016 10 16 0.00 0.00
10:35 am 10:35 Cloudy 66 18.9 61 16.2 84 84 ENE 6 9 30.01 1016 10 16 0.00 0.00
10:55 am 10:55 Mostly Cloudy 67 19.4 61 16.1 81 81 E 10 17 30.01 1016 10 16 0.00 0.00
11:15 am 11:15 Mostly Cloudy 66 19 60 15.4 80 80 ENE 3 6 30.02 1017 10 16 0.00 0.00
11:35 am 11:35 Partly Cloudy 69 20.5 62 16.7 79 79 ENE 7 11 30.00 1016 10 16 0.00 0.00
11:55 am 11:55 Sunny with Nearby Thunderstorms 69 20.3 62 16.9 81 81 E 7 11 30.01 1016 10 16 0.00 0.00
12:15 pm 12:15 Partly Cloudy 69 20.5 62 16.7 79 79 ENE 6 9 30.00 1016 10 16 0.00 0.00
12:35 pm 12:35 Partly Cloudy 70 21.3 63 17 77 77 NE 7 11 30.01 1016 10 16 0.00 0.00
12:55 pm 12:55 Partly Cloudy 71 21.6 62 16.9 75 75 ENE 6 9 30.00 1016 10 16 0.00 0.00
1:15 pm 13:15 Sunny 71 21.7 62 16.6 73 73 E 7 11 30.00 1016 10 16 0.00 0.00
1:35 pm 13:35 Partly Cloudy 72 22.3 63 17.1 73 73 E 8 13 30.00 1016 10 16 0.00 0.00
1:55 pm 13:55 Mostly Cloudy 72 22.4 63 17.2 73 73 NNE 6 9 29.99 1016 10 16 0.00 0.00
2:15 pm 14:15 Partly Cloudy 74 23.1 64 17.6 71 71 NE 9 15 29.98 1015 10 16 0.00 0.00
2:35 pm 14:35 Sunny 74 23.3 64 17.6 70 70 NNE 9 15 29.98 1015 10 16 0.00 0.00
2:55 pm 14:55 Mostly Cloudy 74 23.4 63 17.3 69 69 NNE 8 13 29.97 1015 10 16 0.00 0.00
3:15 pm 15:15 Mostly Cloudy 75 23.9 62 16.6 64 64 NE 12 19 29.96 1015 10 16 0.00 0.00
3:35 pm 15:35 Partly Cloudy 75 24 62 16.7 64 64 ENE 9 15 29.95 1014 10 16 0.00 0.00
3:55 pm 15:55 Partly Cloudy 75 24 62 16.8 64 64 NE 9 15 29.95 1014 10 16 0.00 0.00
4:15 pm 16:15 Partly Cloudy 73 22.7 61 16.3 67 67 N 8 13 29.96 1014 10 16 0.00 0.00
4:35 pm 16:35 Partly Cloudy 76 24.5 64 17.6 66 66 NE 9 15 29.95 1014 10 16 0.00 0.00
4:55 pm 16:55 Partly Cloudy 76 24.4 62 16.7 62 62 NNE 10 17 29.95 1014 10 16 0.00 0.00
5:15 pm 17:15 Partly Cloudy 74 23.5 61 16 63 63 NNE 10 17 29.95 1014 10 16 0.00 0.00
5:35 pm 17:35 Partly Cloudy 72 22.2 60 15.8 67 67 N 8 13 29.96 1015 10 16 0.00 0.00
5:55 pm 17:55 Partly Cloudy 75 24 61 16.3 62 62 NE 9 15 29.95 1014 10 16 0.00 0.00
6:15 pm 18:15 Sunny 74 23.4 61 15.9 63 63 NNE 12 19 29.96 1014 10 16 0.00 0.00
6:35 pm 18:35 Sunny 73 22.7 60 15.4 64 64 N 8 13 29.95 1014 10 16 0.00 0.00
6:55 pm 18:55 Sunny 73 22.8 60 15.4 63 63 N 10 17 29.96 1014 10 16 0.00 0.00
7:15 pm 19:15 Sunny 72 22.1 58 14.7 63 63 N 7 11 29.96 1015 10 16 0.00 0.00
7:35 pm 19:35 Sunny 71 21.6 60 15.5 68 68 N 7 11 29.96 1015 10 16 0.00 0.00
7:55 pm 19:55 Sunny 69 20.7 59 15.2 71 71 N 6 9 29.97 1015 10 16 0.00 0.00
8:15 pm 20:15 Sunny 67 19.5 60 15.5 78 78 N 6 9 29.98 1015 10 16 0.00 0.00
8:35 pm 20:35 Sunny 65 18.3 60 15.4 83 83 N 6 9 29.99 1016 10 16 0.00 0.00
8:55 pm 20:55 Clear 64 17.7 59 15 84 84 N 5 7 30.00 1016 10 16 0.00 0.00
9:15 pm 21:15 Clear 63 17.2 58 14.6 85 85 N 6 9 30.01 1016 10 16 0.00 0.00
9:35 pm 21:35 Clear 63 17.2 57 14.1 82 82 N 7 11 30.02 1016 10 16 0.00 0.00
9:55 pm 21:55 Clear 62 16.5 57 14 85 85 N 6 9 30.03 1017 10 16 0.00 0.00
10:15 pm 22:15 Clear 61 16.1 56 13.5 85 85 N 7 11 30.03 1017 10 16 0.00 0.00
10:35 pm 22:35 Clear 60 15.8 55 12.7 82 82 N 7 11 30.03 1017 10 16 0.00 0.00
10:55 pm 22:55 Clear 60 15.5 54 12.2 81 81 N 6 9 30.03 1017 10 16 0.00 0.00
11:15 pm 23:15 Clear 59 14.8 54 12.4 86 86 N 6 9 30.03 1017 10 16 0.00 0.00
11:35 pm 23:35 Clear 58 14.7 54 12.2 85 85 N 6 9 30.03 1017 10 16 0.00 0.00
11:55 pm 23:55 Clear 59 14.8 54 12.1 84 84 N 7 11 30.04 1017 10 16 0.00 0.00

Powered by AerisWeather